User: anonymous   Login
Location: Unspecified
(50.7693°N, 0.0000°E)
Time: 02:25:59
(UTC+00:00)
Language:

A-11 Canister half - Orbit

View from above orbital plane
View from above orbital plane
View from above satellite
View from above satellite

Ground track
Ground track

The orbit data is extracted from the following two-line orbital elements,

1    51U 60009C   19175.60215577 -.00000036 +00000-0 +47131-3 0  9996
2    51 047.2151 017.6136 0105648 175.2464 184.9350 12.18272702620342
Epoch (UTC): 24 June 2019 14:27:06
Eccentricity: 0.0105648
inclination: 47.2151°
perigee height: 1516 km
apogee height: 1684 km
right ascension of ascending node: 17.6136°
argument of perigee: 175.2464°
revolutions per day: 12.18272702
mean anomaly at epoch: 184.9350°
orbit number at epoch: 62034

The dashed part of the orbit path shows where the satellite is in the earth's shadow,  

DLR